Location: Newark
(21.1200°N, 73.4000°E)
Time: 20:27:56
(UTC+00:00)

S-56A Canister/Altair - All Passes

Search period start: 21 January 2020 00:00
Search period end: 31 January 2020 00:00
Orbit: 634 x 2498 km, 38.9° (Epoch: 21 January)

Date Brightness Start Highest point End Pass type
(mag) Time Alt. Az. Time Alt. Az. Time Alt. Az.
21 Jan - 01:50:07 10° WSW 01:53:31 13° SW 01:57:24 10° SSW daylight
21 Jan - 12:44:21 10° SSW 12:51:34 25° SE 12:56:56 10° E daylight
21 Jan - 14:48:32 10° WSW 14:56:10 76° NW 15:01:24 10° NE visible
21 Jan - 16:57:06 10° WNW 17:00:21 16° NNW 17:03:16 10° NNE visible
21 Jan - 21:07:23 10° NNW 21:11:22 25° NNE 21:16:16 10° E visible
21 Jan - 23:09:54 10° WNW 23:15:21 64° SW 23:23:26 10° SE visible
22 Jan - 01:16:34 10° WSW 01:20:26 14° SW 01:25:02 10° S visible
22 Jan - 12:11:23 10° S 12:18:35 22° SE 12:24:03 10° E daylight
22 Jan - 14:15:06 10° SW 14:23:28 90° W 14:29:02 10° NE visible
22 Jan - 16:23:24 10° WNW 16:27:36 20° NNW 16:31:08 10° NNE visible
22 Jan - 20:35:12 10° NNW 20:38:41 21° NNE 20:42:43 10° ENE night (unlit)
22 Jan - 22:37:29 10° WNW 22:42:38 76° SW 22:50:09 10° SE visible
23 Jan - 00:43:20 10° WSW 00:47:26 16° SW 00:52:28 10° S visible
23 Jan - 11:38:29 10° S 11:45:32 20° SE 11:51:02 10° E daylight
23 Jan - 13:41:38 10° SW 13:50:43 78° SE 13:56:38 10° ENE visible
23 Jan - 15:49:40 10° W 15:54:52 24° NNW 15:58:59 10° NNE visible
23 Jan - 20:03:01 10° NNW 20:05:58 17° NNE 20:09:12 10° ENE night (unlit)
23 Jan - 22:05:05 10° NW 22:09:59 89° NNE 22:16:54 10° SE visible
24 Jan - 00:10:17 10° WSW 00:14:30 18° SW 00:19:48 10° S visible
24 Jan - 11:05:39 10° S 11:12:25 18° SE 11:17:51 10° ESE daylight
24 Jan - 13:08:10 10° SW 13:17:53 67° SE 13:24:11 10° ENE visible
24 Jan - 15:15:55 10° W 15:22:09 30° NNW 15:26:48 10° NNE visible
24 Jan - 19:30:49 10° NNW 19:33:13 14° NNE 19:35:43 10° NE night (unlit)
24 Jan - 21:32:42 10° NW 21:37:23 73° NE 21:43:40 10° ESE visible
24 Jan - 23:37:22 10° W 23:41:38 20° SW 23:47:05 10° S visible
25 Jan - 10:32:59 10° S 10:39:14 16° SE 10:44:26 10° ESE daylight
25 Jan - 12:34:40 10° SW 12:44:58 59° SE 12:51:41 10° ENE daylight
25 Jan - 14:42:07 10° W 14:49:24 37° NNW 14:54:35 10° NE visible
25 Jan - 16:53:07 10° NNW 16:54:29 11° NNW 16:55:47 10° N visible
25 Jan - 18:58:36 10° N 19:00:26 12° NNE 19:02:16 10° NE night (unlit)
25 Jan - 21:00:20 10° NW 21:04:49 58° NE 21:10:30 10° ESE night (unlit)
25 Jan - 23:04:34 10° W 23:08:50 23° SW 23:14:20 10° SSE visible
26 Jan - 10:00:33 10° S 10:05:58 14° SE 10:10:41 10° ESE daylight
26 Jan - 12:01:12 10° SW 12:11:59 52° SE 12:19:07 10° ENE daylight
26 Jan - 14:08:17 10° WSW 14:16:38 45° NNW 14:22:19 10° NE visible
26 Jan - 16:18:56 10° NW 16:21:35 13° NNW 16:23:58 10° NNE visible
26 Jan - 18:26:20 10° N 18:27:36 11° NNE 18:28:50 10° NNE night (unlit)
26 Jan - 20:27:58 10° NW 20:32:15 45° NNE 20:37:20 10° ESE night (unlit)
26 Jan - 22:31:50 10° W 22:36:05 26° SW 22:41:33 10° SSE visible
27 Jan - 09:28:35 10° SSE 09:32:39 12° SE 09:36:22 10° ESE daylight
27 Jan - 11:27:45 10° SSW 11:38:55 46° SE 11:46:28 10° ENE daylight
27 Jan - 13:34:27 10° WSW 13:43:49 54° NW 13:50:01 10° NE visible
27 Jan - 15:44:54 10° NW 15:48:43 16° NNW 15:51:57 10° NNE visible
27 Jan - 17:53:52 10° N 17:54:44 10° N 17:55:35 10° NNE night (unlit)
27 Jan - 19:55:35 10° NW 19:59:41 36° NNE 20:04:14 10° E night (unlit)
27 Jan - 21:59:09 10° W 22:03:24 31° SW 22:08:47 10° SSE visible
28 Jan - 08:58:27 10° SE 08:59:17 10° SE 09:00:06 10° SE daylight
28 Jan - 10:54:19 10° SSW 11:05:46 41° SE 11:13:44 10° ENE daylight
28 Jan - 13:00:35 10° WSW 13:10:57 63° NW 13:17:41 10° NE visible
28 Jan - 15:10:50 10° WNW 15:15:51 19° NNW 15:19:51 10° NNE visible
28 Jan - 17:20:51 10° N 17:21:50 10° N 17:22:47 10° NNE night (unlit)
28 Jan - 19:23:10 10° NNW 19:27:05 29° NNE 19:31:09 10° E night (unlit)
28 Jan - 21:26:32 10° WNW 21:30:46 37° SW 21:36:03 10° SSE night (unlit)
29 Jan - 10:20:59 10° SSW 10:32:33 37° SE 10:40:54 10° ENE daylight
29 Jan - 12:26:43 10° WSW 12:38:00 74° NW 12:45:17 10° NE daylight
29 Jan - 14:36:45 10° WNW 14:42:57 23° NNW 14:47:41 10° NNE visible
29 Jan - 16:47:20 10° NNW 16:48:55 11° N 16:50:23 10° NNE visible
29 Jan - 18:50:41 10° NNW 18:54:27 24° NNE 18:58:08 10° E night (unlit)
29 Jan - 20:53:55 10° WNW 20:58:12 45° SW 21:03:19 10° SE night (unlit)
30 Jan - 09:47:42 10° SSW 09:59:16 34° SE 10:07:55 10° E daylight
30 Jan - 11:52:52 10° SW 12:04:59 84° NW 12:12:50 10° NE daylight
30 Jan - 14:02:37 10° W 14:10:02 27° NNW 14:15:27 10° NNE visible
30 Jan - 16:13:37 10° NNW 16:15:58 12° N 16:18:07 10° NNE visible
30 Jan - 18:18:08 10° NNW 18:21:45 21° NNE 18:25:09 10° ENE night (unlit)
30 Jan - 20:21:18 10° WNW 20:25:38 58° SW 20:30:35 10° SE night (unlit)
